Location: Caltech
(34.1382°N, 118.1253°W)
Time: 19:04:16
(UTC-07:00)

ADEOS II - Visible Passes

Search period start: 27 April 2015 00:00
Search period end: 07 May 2015 00:00
Orbit: 800 x 803 km, 98.3° (Epoch: 27 April)

Date Brightness Start Highest point End Pass type
(mag) Time Alt. Az. Time Alt. Az. Time Alt. Az.
27 Apr 4.6 05:26:41 10° NE 05:30:46 24° E 05:35:00 10° SSE visible
28 Apr 5.1 05:02:16 10° ENE 05:04:16 12° E 05:06:37 10° ESE visible
01 May 4.7 05:21:53 10° NE 05:25:44 21° E 05:29:46 10° SE visible
02 May 5.2 04:57:58 10° ENE 04:59:12 11° E 05:00:51 10° ESE visible
05 May 4.8 05:17:06 10° NE 05:20:42 19° E 05:24:29 10° SE visible
